Simultaneous Nadir Overpasses (SNOs) Predictions

Prediction of SNOs near equator between AQUA and NPP Satellite Orbit:

Table of predicted SNOs near equator for the next 14.0 days since TLE Epoch: 11/11/2016
Index Date (AQUA) Time (AQUA) AQUA Lat,Lon Date (NPP) Time (NPP) NPP Lat,Lon Distance(km) Time Diff (sec)
1 11/13/2016 07:51:42 3.17, 85.40 11/13/2016 07:42:32 3.15, 85.23 18.82 550
2 11/13/2016 08:39:50 1.29,-106.00 11/13/2016 08:31:55 1.40,-106.42 49.10 475
3 11/13/2016 09:28:04 -5.96, 62.62 11/13/2016 09:21:25 -6.07, 61.92 78.68 399
4 11/15/2016 23:19:53 -7.69, 32.69 11/15/2016 23:09:54 -7.69, 32.68 1.58 599
5 11/16/2016 00:07:44 1.64,-158.39 11/15/2016 23:59:00 1.61,-158.66 29.95 524
6 11/16/2016 00:55:51 2.89, 10.23 11/16/2016 00:48:22 3.00, 9.70 59.90 449
7 11/16/2016 01:44:07 -7.43, 178.82 11/16/2016 01:37:53 -7.61, 178.03 89.25 374
8 11/18/2016 15:35:31 -4.65, 149.23 11/18/2016 15:25:57 -4.62, 149.14 10.75 574
9 11/18/2016 16:23:47 0.11, -42.19 11/18/2016 16:15:28 0.01, -42.54 40.90 499
10 11/18/2016 17:11:53 4.47, 126.45 11/18/2016 17:04:50 4.60, 125.82 70.76 423
11 11/18/2016 18:00:09 -9.01, -64.96 11/18/2016 17:54:21 -9.21, -65.84 99.71 348
12 11/21/2016 07:09:37 30.00, 91.62 11/21/2016 06:59:37 30.76, 91.22 93.12 600
13 11/21/2016 07:51:33 -3.08, -94.55 11/21/2016 07:42:25 -3.03, -94.74 21.84 548
14 11/21/2016 08:39:48 -1.51, 74.05 11/21/2016 08:31:56 -1.58, 73.58 51.98 472
15 11/21/2016 09:27:55 6.04,-117.33 11/21/2016 09:21:18 6.19,-118.05 81.59
